www.pogodaiklimat.ru

Погода и климат >> Архив погоды >> Канада >> Онтарио >> Тандер-Бэй


АРХИВ ПОГОДЫ в Тандер-Бэе

Время (UTC), дата Ветер
(напр.,м/с)
 
Видим.   Явления Облачность Т
(С)
Тd
(С)
f
(%)
Тe
(С)
Тes
(С)
Комфортность P
(гПа)
Po
(гПа)
Тmin
(С)
Tmax
(С)
R
(мм)
R24
(мм)
S
(см)
18 11.09 СВ 6 н/о н/о +11.3 +7.0 75 +8 +8 очень
холодно
1026.0 1001.5 +9.2 +11.8
21 11.09 В 4 н/о н/о +12.5 +8.0 74 +11 +11 холодно 1025.8 1001.4
00 12.09 В 2 н/о н/о +11.0 +8.5 85 +10 +10 прохладно 1026.5 1002.0 +9.2 +13.0
03 12.09 В 4 н/о н/о +11.1 +7.2 77 +9 +9 по сезону 1027.4 1002.9
06 12.09 СВ 6 н/о н/о +10.0 +6.5 79 +7 +7 по сезону 1027.6 1003.1 +9.2 +13.0 6
09 12.09 В 6 н/о н/о +9.3 +6.0 80 +6 +6 по сезону 1028.4 1003.9
12 12.09 В 5 н/о н/о +9.6 +6.9 83 +7 +7 по сезону 1028.9 1004.3 +8.8 +13.0
15 12.09 В 6 н/о н/о +10.2 +6.7 79 +7 +7 холодно 1028.5 1004.0 0.0
18 12.09 В 8 н/о {осадки} н/о +10.4 +6.7 78 +7 +7 очень
холодно
1027.5 1003.0 +8.8 +10.6 0.0
21 12.09 В 7 н/о {осадки} н/о +10.8 +6.9 77 +7 +7 очень
холодно
1025.7 1001.2 0.2
00 13.09 В 6 н/о {осадки} н/о +11.3 +8.2 81 +8 +8 холодно 1021.9 997.5 +8.8 +11.3 0.2
03 13.09 В 10 н/о н/о +13.4 +8.6 73 +10 +10 по сезону 1018.4 994.2 0.2
06 13.09 В 5 н/о {осадки} н/о +11.6 +10.9 95 +9 +9 по сезону 1015.7 991.5 +8.8 +13.5 8 3
09 13.09 В 8 н/о н/о +11.4 +11.0 97 +8 +8 по сезону 1010.7 986.6 4
12 13.09 В 4 н/о {осадки} н/о +12.1 +11.8 98 +10 +10 тепло 1007.7 983.7 +11.1 +13.5 11
15 13.09 В 3 н/о н/о +13.0 +12.7 98 +11 +11 по сезону 1005.5 981.6 0.9
18 13.09 ЮЗ 2 н/о н/о +16.4 +14.5 89 +16 +16 по сезону 1003.6 979.8 +10.4 +17.1 0.9
21 13.09 З 6 н/о {осадки} н/о +15.6 +13.6 88 +14 +14 по сезону 1004.0 980.2 0.8
00 14.09 З 8 н/о {осадки} н/о +13.9 +10.4 79 +11 +11 прохладно 1005.9 982.0 +11.3 +17.2 0.8
03 14.09 З 6 н/о н/о +12.2 +9.2 82 +9 +9 по сезону 1007.5 983.6
06 14.09 З 5 н/о н/о +11.2 +8.1 81 +8 +8 по сезону 1009.0 985.1 +11.2 +17.2 0
09 14.09 ЮЗ 4 н/о н/о +10.3 +8.3 87 +8 +8 по сезону 1010.9 986.9
12 14.09 З 6 н/о {осадки} н/о +10.2 +7.2 82 +7 +7 по сезону 1013.5 989.4 +9.4 +17.2 0.5
15 14.09 З 6 н/о н/о +12.3 +6.9 70 +10 +10 по сезону 1016.0 991.8
18 14.09 СЗ 6 н/о {осадки} н/о +14.9 +7.4 61 +13 +13 прохладно 1017.9 993.7 +9.4 +15.0 0.0
21 14.09 З 3 н/о н/о +17.3 +7.1 51 +17 +17 тепло 1017.5 993.4
00 15.09 Ю 1 н/о н/о +13.6 +8.7 72 +14 +14 по сезону 1017.8 993.6 +9.4 +18.2
03 15.09 СВ 2 н/о н/о +12.1 +10.0 87 +11 +11 по сезону 1017.6 993.4
06 15.09 В 2 н/о {осадки} н/о +11.6 +10.7 94 +11 +11 тепло 1019.0 994.8 +9.4 +18.2 0.6 16
09 15.09 СВ 1 н/о н/о +7.5 +7.2 98 +6 +6 по сезону 1017.6 993.4
12 15.09 В 1 н/о н/о +9.4 +9.3 99 +9 +9 тепло 1017.2 993.0 +5.3 +18.2
15 15.09 В 3 н/о н/о +13.1 +11.0 87 +12 +12 по сезону 1017.6 993.4
18 15.09 В 4 н/о н/о +15.2 +11.6 79 +14 +14 прохладно 1017.1 993.0 +5.3 +15.6
21 15.09 В 5 н/о н/о +15.0 +12.1 83 +14 +14 по сезону 1016.2 992.0
00 16.09 В 3 н/о н/о +13.8 +12.5 92 +13 +13 по сезону 1016.3 992.1 +5.3 +16.5
03 16.09 СВ 2 н/о н/о +13.1 +12.5 96 +13 +13 тепло 1016.8 992.7
06 16.09 СВ 1 н/о н/о +13.1 +12.7 97 +13 +13 тепло 1017.2 993.1 +5.3 +16.5
09 16.09 ЮЗ 1 н/о н/о +12.8 +12.6 99 +13 +13 тепло 1018.0 993.9
12 16.09 З 1 н/о н/о +12.1 +12.0 99 +12 +12 тепло 1019.0 994.8 +12.1 +16.5
15 16.09 В 2 н/о н/о +12.9 +12.8 99 +12 +12 по сезону 1019.7 995.5
18 16.09 В 5 н/о н/о +15.1 +13.2 88 +14 +14 прохладно 1019.3 995.1 +12.1 +15.3
21 16.09 В 6 н/о н/о +16.4 +14.5 89 +15 +15 по сезону 1018.5 994.4
00 17.09 В 4 н/о н/о +14.5 +14.2 98 +13 +13 по сезону 1018.1 993.9 +12.1 +17.0 0.8
03 17.09 В 4 н/о н/о +13.5 +13.3 99 +12 +12 по сезону 1018.2 994.0
06 17.09 В 4 н/о н/о +13.3 +13.1 99 +11 +11 тепло 1017.9 993.8 +12.1 +17.0
09 17.09 В 2 н/о н/о +13.6 +13.5 99 +13 +13 тепло 1017.8 993.7
12 17.09 З 1 н/о н/о +13.4 +13.3 99 +13 +13 тепло 1018.3 994.2 +13.1 +17.0
15 17.09 СВ 2 н/о н/о +19.0 +16.1 83 +21 +21 комфорт 1017.2 993.2
18 17.09 СВ 4 н/о н/о +21.9 +17.0 74 +26 +26 душно 1016.2 992.3 +13.1 +22.4
21 17.09 В 3 н/о н/о +19.0 +15.7 81 +21 +21 комфорт 1016.1 992.1
00 18.09 В 6 н/о {осадки} н/о +16.1 +15.6 97 +15 +15 тепло 1015.5 991.5 +13.3 +22.5 5
03 18.09 В 4 н/о н/о +16.8 +16.0 95 +16 +16 тепло 1014.3 990.4 3
06 18.09 СВ 3 н/о н/о +16.9 +15.1 89 +17 +17 тепло 1013.0 989.2 +13.3 +22.5 3 4
09 18.09 СВ 2 н/о н/о +15.5 +14.7 95 +15 +15 тепло 1012.5 988.6
12 18.09 Ю 4 н/о н/о +18.8 +16.5 86 +20 +20 тепло 1012.0 988.2 +14.4 +22.5

 

Местоположение метеостанции Тандер-Бэй (Онтарио, Канада): широта 48.37 долгота -89.31 высота над уровнем моря 199 м.

В архиве по умолчанию представлена погода в Тандер-Бэе за последнюю неделю. Архивные данные за месяц целиком и за предыдущие месяцы, начиная с января 2011 года, Вы можете получить, выбрав интересующий диапазон дат из раскрывающегося списка и нажав кнопку "Ввод!".


*Определитесь, кто Вы:
робот инопланетянин человек

Внимание! Время в таблицах - всемирное. Для получения местного времени необходимо прибавить поправку, которая равна -6 ч.

Смотрите также архив погоды в соседних городах и на ближайших метеорологических станциях:

Погода в Тандер-Бэй аэропорту (Онтарио, Канада) (1 км)
Погода на Острове Уэлком (Онтарио, Канада) (15 км)
Погода в Иглшеме (Альберта, Канада) (34 км)
Погода в Упсала (Онтарио, Канада) (112 км)
Погода в Камерон Фоллс (Онтарио, Канада) (113 км)
Погода на Острове Кататота (Онтарио, Канада) (166 км)
Погода в Атикокане (Онтарио, Канада) (176 км)
Погода в Армстронге (Онтарио, Канада) (216 км)
Погода в Пекаскве (Онтарио, Канада) (223 км)
Погода в Джералдтоне (Онтарио, Канада) (234 км)

Пояснения к столбцам:

Ветер - указаны скорость ветра в м/с - средняя за 10 мин, порывы в срок и между сроками (в фигурных скобках) и направление, откуда дует ветер: С - северный, СВ - северо-восточный, В - восточный, ЮВ - юго-восточный, Ю - южный, ЮЗ - юго-западный, З - западный, СЗ - северо-западный.
Видимость - горизонтальная дальность видимости в метрах или километрах. При видимости от 1 до 10 км при отсутствии осадков обычно наблюдается дымка, при ухудшении видимости до 1 км и менее - туман. В сухую погоду видимость может ухудшаться дымом, пылью или мглою.
Явления - указаны атмосферные явления, наблюдавшиеся в срок или в последний час перед сроком; фигурными скобками обозначены явления, наблюдавшиеся между сроками (за 1-3 часа до срока); квадратными скобками обозначены град или гололедные отложения с указанием их диаметра в мм.
Облачность - указаны через наклонную черту общая и нижняя облачность в баллах и высота нижней границы облаков в метрах; квадратными скобками обозначены формы облаков: Ci - перистые, Cs - перисто-слоистые, Cc - перисто-кучевые, Ac - высококучевые, As - высокослоистые, Sc - слоисто-кучевые, Ns - слоисто-дождевые, Cu - кучевые, Cb - кучево-дождевые. Подробнее классификацию облаков см. в Атласе облаков (PDF).
T - Температура воздуха - температура, измеренная на высоте 2 м над землей.
Td - Температура точки росы - температура, при понижении до которой содержащийся в воздухе водяной пар достигнет насыщения.
f - Относительная влажность воздуха - влажноcть воздуха, измеренная на высоте 2 м над землей.
Te - Эффективная температура - температура, которую ощущает одетый по сезону человек в тени. Характеристика душности погоды. При расчете учитывается влияние влажности воздуха и скорости ветра на теплоощущения человека.
Tes - Эффективная температура на солнце - температура, которую ощущает человек, с поправкой на солнечный нагрев. Характеристика знойности погоды. Зависит от высоты солнца над горизонтом, облачности и скорости ветра. Ночью, в пасмурную погоду, а также при ветре 12 м/с и более поправка равна нулю.
P - Атмосферное давление - приведенное к уровню моря атмосферное давление.
Po - Атмосферное давление - измеренное на уровне метеостанции атмосферное давление.
Tmin - Минимальная температура - минимум температуры воздуха на высоте 2 м над землей.
Tmax - Максимальная температура - максимум температуры воздуха на высоте 2 м над землей.
R - Количество осадков - Количество выпавших осадков за период времени, мм. При наведении курсора мыши на число - период времени, за который выпало указанное количество осадков.
R24 - Количество осадков - Количество выпавших осадков за 24 часа, мм.
S - Снежный покров - Высота снежного покрова, см. При наведении курсора мыши на число - состояние снежного покрова и степень покрытия местности в баллах.